Regional Weather Roundup
Issued by NWS

Home | Current Version | Previous Version | Graphics & Text | Print | Product List | Glossary Off
Versions: 1 2 3 4 5 6 7 8 9 10 11 12 13 14 15 16 17 18 19 20 21 22 23 24 25 26 27 28 29 30 31 32 33 34 35 36 37 38 39 40 41 42 43 44 45 46 47 48 49 50

000
ASUS43 KMPX 270801
RWRMN
WEATHER ROUNDUP FOR MINNESOTA
NATIONAL WEATHER SERVICE TWIN CITIES/CHANHASSEN MN
300 AM CDT MON MAR 27 2017


NOTE: "FAIR" INDICATES FEW OR NO CLOUDS BELOW 12,000 FEET WITH NO
SIGNIFICANT WEATHER AND/OR OBSTRUCTIONS TO VISIBILITY. N/A MEANS
CURRENT SKY AND/OR WEATHER CONDITIONS ARE NOT AVAILABLE.

MNZ060>063-068>070-270900-
   Twin Cities Metro

CITY           SKY/WX    TMP DP  RH WIND       PRES   REMARKS
TWIN CITIES    CLOUDY    39  34  82 NW3       29.93S
ST PAUL        CLOUDY    38  35  89 N5        29.95R
CRYSTAL        CLOUDY    38  32  79 VRB3      29.93S
BLAINE         CLOUDY    37  37 100 N3        29.93S
LAKEVILLE        N/A     37  37 100 CALM      29.93R FOG
EDEN PRAIRIE   CLOUDY    39  35  86 NW5       29.92R
SOUTH ST PAUL  CLOUDY    38  36  92 N5        29.93S
LAKE ELMO      CLOUDY    36  36 100 CALM      29.94R
$$
MNZ001>005-007-008-013>017-022>024-027-028-270900-
   Northwest Minnesota

CITY           SKY/WX    TMP DP  RH WIND       PRES   REMARKS
BEMIDJI        CLOUDY    33  32  95 CALM      29.94S
HALLOCK        FOG       28  28 100 CALM      29.97S VSB 1/4
ROSEAU         CLEAR     28  25  86 CALM      29.96R FOG
WARROAD        MOCLDY    28  25  86 CALM      29.95S FOG
THIEF RVR FALL FOG       30  29  96 NE3       29.97S VSB 1/4
CROOKSTON      FOG       30  30 100 CALM      29.97S VSB<1/4
FOSSTON        PTCLDY    30  30 100 CALM      29.96S FOG
DETROIT LAKES  MOCLDY    37  36  93 CALM      29.95S
MOORHEAD       MOCLDY    34  32  93 CALM      29.97S FOG
PARK RAPIDS    CLOUDY    35  30  82 N3        29.93S
MAHNOMEN       FAIR      34  33  97 CALM      29.95S FOG
$$
MNZ006-009>011-018-025>026-270900-
   North Central Minnesota

CITY           SKY/WX    TMP DP  RH WIND       PRES   REMARKS
BAUDETTE       CLOUDY    28  26  92 CALM      29.94S
FLAG ISLAND    CLEAR     28  28 100 CALM      29.95S
INTL FALLS     PTCLDY    27  25  92 CALM      29.94R
WASKISH        PTCLDY    28  27  93 CALM      29.95S
BIG FORK       CLOUDY    34  28  80 CALM      29.94S
LONGVILLE      PTCLDY    30  28  93 CALM      29.93S
GRAND RAPIDS   CLOUDY    34  31  88 CALM      29.94S
CRANE LAKE     MOCLDY    28  27  93 CALM      29.95S
ORR            CLOUDY    34  28  80 CALM      29.91S
COOK           CLOUDY    34  28  80 CALM      29.93S
WALKER         CLOUDY    34  30  86 CALM      29.93S
$$
MNZ012-019>021-037-270900-
   Northeast Minnesota

CITY           SKY/WX    TMP DP  RH WIND       PRES   REMARKS
DULUTH         FOG       31  31 100 W6        29.92S VSB 1/2 WCI  25
ELY            MOCLDY    28  28 100 CALM      29.91S
HIBBING        CLOUDY    29  29 100 CALM      29.91F
EVELETH        CLOUDY    32  31  96 CALM      29.92F
DULUTH HARBOR  CLOUDY    34  32  93 CALM      29.96S
TWO HARBORS    CLOUDY    34  28  80 CALM      29.91S HAZE
SILVER BAY     CLOUDY    34  34 100 CALM      29.90F FOG
GRAND MARAIS     N/A     33  32  96 CALM      29.92F
G MARAIS ARPRT PTCLDY    28  27  93 CALM      29.88F
$$
MNZ029>031-032-039>041-046>048-054>057-064-270900-
   West Central Minnesota

CITY           SKY/WX    TMP DP  RH WIND       PRES   REMARKS
FERGUS FALLS   CLOUDY    37  37 100 NE3       30.00R
WHEATON        MOCLDY    36  34  93 CALM      29.98S
MORRIS         CLOUDY    34  34 100 NW3       29.95R FOG
ALEXANDRIA     CLOUDY    36  34  92 NW5       29.95R
ELBOW LAKE     CLOUDY    33  33 100 CALM      29.96S FOG
WADENA         PTCLDY    32  30  93 CALM      29.94S
GLENWOOD       CLOUDY    37  36  93 W5        29.95S
APPLETON       CLOUDY    36  34  93 CALM      29.96S
BENSON         CLOUDY    34  30  86 CALM      29.97S FOG
ORTONVILLE     CLOUDY    34  32  93 CALM      29.95S
MADISON        CLOUDY    37  37 100 CALM      29.96R FOG
WILLMAR        CLOUDY    36  34  93 CALM      29.97R
$$
MNZ033>034-036-042>043-049>051-058-059-270900-
   Central Minnesota

CITY           SKY/WX    TMP DP  RH WIND       PRES   REMARKS
ST CLOUD       CLOUDY    34  34 100 W5        29.94R WCI  30
SAUK CENTRE    CLOUDY    34  33  96 SW3       29.96R
PAYNESVILLE      N/A     33  33 100 W6        29.97R WCI  28
AITKIN         CLOUDY    34  28  80 CALM      29.92S
PINE RIVER     CLOUDY    32  30  93 CALM      29.97S
BRAINERD       CLOUDY    35  32  88 SW3       29.94S
STAPLES        CLOUDY    34  30  86 W3        29.94S
LONG PRAIRIE   MOCLDY    34  32  93 CALM      29.95R
LITTLE FALLS   CLOUDY    34  32  93 CALM      29.95R
LITCHFIELD     CLOUDY    39  37  93 CALM      29.96R
BUFFALO        CLOUDY    37  36  94 CALM      29.96R
MAPLE LAKE     CLOUDY    37  37 100 CALM      29.95R FOG
HUTCHINSON     CLOUDY    38  37  98 NW5       29.97R
$$
MNZ037-044-045-052-053-270900-
   East Central Minnesota

CITY           SKY/WX    TMP DP  RH WIND       PRES   REMARKS
PRINCETON      CLOUDY    37  36  93 CALM      29.95R FOG
MORA           CLOUDY    34  32  93 CALM      29.95S FOG
CAMBRIDGE      CLOUDY    37  36  93 CALM      29.92S
RUSH CITY      CLOUDY    35  33  94 CALM      29.94S
MOOSE LAKE     FOG       32  32 100 CALM      29.92S VSB 1/2
CLOQUET        CLOUDY    30  28  93 CALM      29.92S FOG
MCGREGOR       CLOUDY    32  32 100 CALM      29.93S
$$
MNZ071>073-080-081-089-090-097-098-270900-
   Southwest Minnesota

CITY           SKY/WX    TMP DP  RH WIND       PRES   REMARKS
MONTEVIDEO     CLOUDY    37  36  93 NW5       29.98S
GRANITE FALLS  CLOUDY    40  38  93 W5        29.97F
CANBY          CLOUDY    37  36  95 CALM      29.97S
MARSHALL       CLOUDY    38  36  92 W7        29.96R
REDWOOD FALLS  CLOUDY    40  36  86 W3        29.95R
OLIVIA         CLOUDY    37  36  93 CALM      29.96R
PIPESTONE      FOG       36  32  87 CALM      29.94S VSB 1/2
WINDOM         PTCLDY    39  37  93 W5        29.94R
WORTHINGTON    CLOUDY    35  35 100 W8        29.96R WCI  29
JACKSON        CLOUDY    37  37 100 NW6       29.95R
TRACY          CLOUDY    40  38  93 NW3       29.96R
SLAYTON        CLOUDY    36  35  95 NW7       29.95R
$$
MNZ065>067-074>077-082>085-091>093-270900-
   South Central Minnesota

CITY           SKY/WX    TMP DP  RH WIND       PRES   REMARKS
MANKATO        CLOUDY    38  37  97 NW7       29.94R
NEW ULM        CLOUDY    37  36  93 NW6       29.94R
ST JAMES       CLOUDY    37  37 100 CALM      29.95R
GLENCOE        CLOUDY    38  38 100 W5        29.94R
FARIBAULT      CLOUDY    37  37 100 N3        29.92F FOG
OWATONNA       FOG       37  37 100 NW3       29.92S VSB 1
WASECA         FOG       36  36 100 NW5       29.93S VSB 3/4
ALBERT LEA     FOG       37  37 100 N3        29.90F VSB 1
$$
MNZ078>079-086>088-094>096-270900-
   Southeast Minnesota

CITY           SKY/WX    TMP DP  RH WIND       PRES   REMARKS
ROCHESTER      LGT RAIN  38  38 100 N7        29.89F VSB 3/4
RED WING       CLOUDY    39  37  93 CALM      29.92S
STANTON        CLOUDY    38  37  94 N3        29.92S FOG
DODGE CENTER   FOG       37  37 100 N5        29.90F VSB 3/4
WINONA         CLOUDY    41  37  87 CALM      29.92S FOG
AUSTIN         FOG       39  37  93 CALM      29.90S VSB 1/2
PRESTON        FOG       38  37  97 N3        29.90S VSB 1/2
$$
ABBREVIATIONS USED IN REMARKS
   TC - TEMPERATURES IN CELSIUS
  WCI - WIND CHILL INDEX
   HX - HEAT INDEX
  VSB - VISIBILITY
$$



USA.gov is the U.S. government's official web portal to all federal, state and local government web resources and services.